Location: ?ejkovice
(49.0137°N, 14.3821°E)
Time: 07:06:49
(UTC+00:00)

COSMOS 2406 - Pass Details

Date: 23 May 2024
Orbit: 844 x 862 km, 71.0° (Epoch: 15 June)

Event Time Altitude Azimuth Distance (km) Brightness Sun altitude
Exits shadow 01:19:31 14° 247° (WSW) 2,257 4.9 -13.7°
Maximum altitude 01:24:03 36° 310° (NW) 1,332 4.3 -13.2°
Drops below altitude 10° 01:29:22 10° 17° (NNE) 2,509 6.9 -12.7°
Sets 01:32:03 0° 26° (NNE) 3,448 8.2 -12.5°
